STARLINK-32179, 60734

Orbit data source: Space-Track

STARLINK-32179, 60734 is a payload satellite owned by SpaceX/Seattle (US) in LEO that was launched on Wed, 28 Aug 2024 UTC via an FALCON 9 launch vehicle from the Air Force Eastern Test Range (AFETR). Payloads include a variety of satellites, spacecraft, and rockets equipped with specific instruments for various scientific and technological missions. These include communications satellites like Starlink; space stations such as the ISS; scientific satellites like the Hubble; Earth observation satellites from companies like Planet Labs, Umbra, and HawkEye 360; GPS; miniature CubeSats for education and research; and military/defense satellites.

Loading next visibility...
STARLINK-32179 details
Identifier
60734, 2024-152Q
Orbit
LEO
Last TLE update16 hours ago
Origin
Flag of USSpaceX/Seattle (US)
ManufacturerSpaceX/Seattle
MissionOperational spacecraft
Bus & MotorSTARLINK V2M, Unknown motor
Mass730 kg wet, ~700 kg dry
Launch date (UTC)
2024-08-28 (4 months ago)
Launch vehicle
FALCON 9
Launch site
Air Force Eastern Test Range (AFETR)
Object type
Payload
Rocket body
Debris
Shape & HBRUnknown
Radar Cross SectionLarge (>1 m²)

Expand to show TLE details & history

TLE from 16 hours ago
0 STARLINK-32179
1 60734U 24152Q   24355.92957350  .00000897  00000-0  42388-4 0  9996
2 60734  53.1580 170.0455 0001084  85.6840 274.4284 15.30200810 18774
Epoch: 2024-12-20T22:18Z
Definitive object data (Epoch: 2024-12-20T22:18:35.15Z)
Latitude-0.00006°
Longitude105.41096°
Altitude476.055 km
Speed7.629 km/s
True Right ascension11h 20m 10s
True Declination0° 00' 00"
Sunlit
Object was in daylight at TLE epoch
Visualization TLE readout
Latitude52.28421°
Longitude176.77954°
Altitude480.812 km
Speed7.632 km/s
Apparent Right ascension21h 30m 15s
Apparent Declination22° 19' 31"
Sunlit
Object is in daylight
Visualization observer readout
Local Sidereal Time13:22:14
Azimuth52.316° ENE
Elevation-7.602°
Doppler factor1
Orbital elements
Apogee altitude476.212 km
Perigee altitude474.726 km
Semi-major axis6,853.606 km
Eccentricity0.0001084
Inclination53.158°
RAAN170.0455°
Arg. of periapsis85.684°
True anomaly274.41602°
Mean anomaly274.4284°
Eccentric anomaly274.42221°
Mean motion3.82529 °/min
BSTAR0.000042388
Orbital period94.11 mins
Loading maneuver chart data...
Loading historical data...
Loading historical data...
Loading historical data...
Loading historical data...
Loading historical data...
Loading historical data...
Loading historical data...

STARLINK-32179 Visibility forecast

Observer location: undefined°, undefined

Span
Click to sort rows by Start time (UTC) header in descending order
Start Az.
Max El. time (UTC)
Max El. Az.
Max El.
End time (UTC)
End Az.
5 mins2024-12-21 15:47:07.662Z276.262° WNW2024-12-21 15:50:07.662Z336.049° NNW23.259°2024-12-21 15:52:07.662Z19.58° NNE
5 mins2024-12-21 20:45:07.662Z336.616° NNW2024-12-21 20:47:07.662Z45.441° ENE33.495°2024-12-21 20:50:07.662Z105.184° ESE
4 mins2024-12-21 22:23:07.662Z264.421° W2024-12-21 22:24:07.662Z242.773° WSW20.687°2024-12-21 22:27:07.662Z181.168° SSW
5 mins2024-12-22 13:40:07.662Z195.614° SSW2024-12-22 13:42:07.662Z149.032° SSE31.851°2024-12-22 13:45:07.662Z68.879° E
|